Regional Weather Roundup
Issued by NWS

Home | Current Version | Previous Version | Graphics & Text | Print | Product List | Glossary On
Versions: 1 2 3 4 5 6 7 8 9 10 11 12 13 14 15 16 17 18 19 20 21 22 23 24 25 26 27 28 29 30 31 32 33 34 35 36 37 38 39 40 41 42 43 44 45 46 47 48 49 50
000
ASUS43 KDMX 270407
RWRIA

WEATHER ROUNDUP FOR IOWA
NATIONAL WEATHER SERVICE DES MOINES IA
1100 PM CDT TUE AUG 26 2014

NOTE: "FAIR" INDICATES FEW OR NO CLOUDS BELOW 12,000 FEET WITH NO
SIGNIFICANT WEATHER AND/OR OBSTRUCTIONS TO VISIBILITY.

* - THESE STATIONS ARE NOT NWS STATIONS...THUS NOT UNDER NWS
QUALITY CONTROL.  THEY ALSO DO NOT REPORT WEATHER SUCH
AS PRECIPITATION OR FOG.

IAZ001>003-012>014-020>022-031>034-043>046-270500-
   NORTHWEST IOWA

CITY           SKY/WX    TMP DP  RH WIND       PRES   REMARKS
CARROLL *      MOCLDY    64  63  94 N3        30.16S
CHEROKEE *     CLEAR     61  61 100 CALM      30.16F
DENISON *      MOCLDY    66  66 100 E5        30.14S
LE MARS *      CLEAR     64  61  88 E6        30.16S
ORANGE CITY *  CLEAR     64  59  82 E3        30.17S
SHELDON *      CLEAR     59  59 100 E5        30.16F
SIOUX CITY     PTCLDY    66  61  84 E6        30.15S
SPENCER        CLEAR     60  58  92 E5        30.18S
STORM LAKE *   CLEAR     63  63 100 E6        30.18S
$$

IAZ055>058-069>071-079>083-090>094-270500-
   SOUTHWEST IOWA

CITY           SKY/WX    TMP DP  RH WIND       PRES   REMARKS
ATLANTIC *     MOCLDY    70  66  88 NE3       30.13S
AUDUBON *      PTCLDY    70  66  88 CALM      30.17R
CLARINDA *     CLEAR     70  68  94 N6        30.13S
COUNCIL BLFS * CLEAR     70  68  94 E7        30.12S
CRESTON *      CLEAR     68  66  94 E7        30.14S
HARLAN  *      PTCLDY    68  68 100 CALM      30.18R
LAMONI         CLEAR     69  67  93 NE5       30.12F
RED OAK *      PTCLDY    70  68  94 NE6       30.12F
SHENANDOAH *   PTCLDY    70  68  94 NE6       30.12S
$$

IAZ047>049-059>061-072>074-084-270500-
   CENTRAL IOWA

CITY           SKY/WX    TMP DP  RH WIND       PRES   REMARKS
AMES           MOCLDY    68  65  90 CALM      30.15R
ANKENY *       PTCLDY    70  66  88 CALM      30.14R
CHARITON *     PTCLDY    68  66  94 NE3       30.13S
DES MOINES     MOCLDY    73  64  73 E5        30.13R
GRINNELL*      PTCLDY    66  63  88 CALM      30.15R
KNOXVILLE *    CLEAR     70  64  83 NE6       30.12S
MARSHALLTOWN   PTCLDY    66  62  87 NE6       30.14R
PELLA *        PTCLDY    68  66  94 CALM      30.14S
PERRY *        MOCLDY    68  66  94 CALM      30.15S
$$

IAZ004>006-015-016-023>025-035-036-270500-
   NORTH CENTRAL IOWA

CITY           SKY/WX    TMP DP  RH WIND       PRES   REMARKS
ALGONA *       CLEAR     63  59  88 NE3       30.18S
CLARION *      CLEAR     64  64 100 CALM      30.17R
ESTHERVILLE    CLEAR     59  56  89 N3        30.18S
FORT DODGE *   CLOUDY    64  61  88 N3        30.18R
MASON CITY     MOCLDY    63  60  90 N6        30.19R
FOREST CITY *  CLEAR     63  59  88 CALM      30.18S
IOWA FALLS *     N/A     68  63  83 CALM      30.17R
$$

IAZ007>011-017>019-026>030-037>042-050>054-066-270500-
   NORTHEAST IOWA

CITY           SKY/WX    TMP DP  RH WIND       PRES   REMARKS
CEDAR RAPIDS   MOCLDY    71  64  78 CALM      30.11S
CHARLES CITY * CLOUDY    64  61  88 CALM      30.17R
CLINTON *      CLEAR     66  63  88 NE6       30.14R
DECORAH *      PTCLDY    64  61  88 CALM      30.15R
DUBUQUE        MOCLDY    67  63  87 N6        30.14R
MONTICELLO *   CLEAR     68  66  94 CALM      30.12S
OELWEIN *      CLOUDY    68  63  83 CALM      30.16R
WATERLOO       CLOUDY    68  63  84 NW5       30.14R
$$

IAZ064-065-067-068-078-270500-
   EAST CENTRAL IOWA

CITY           SKY/WX    TMP DP  RH WIND       PRES   REMARKS
DAVENPORT      CLEAR     67  62  84 NE6       30.12S
IOWA CITY      PTCLDY    73  65  75 N6        30.12S
MT. PLEASANT * CLEAR     70  66  88 NE5       30.12R
MUSCATINE *    CLEAR     70  64  83 CALM      30.11R
QUAD CITIES    CLEAR     73  64  73 NE5       30.10S
$$

IAZ062-063-075>077-085>089-095>099-270500-
   SOUTHEAST IOWA

CITY           SKY/WX    TMP DP  RH WIND       PRES   REMARKS
BURLINGTON     CLEAR     74  68  81 NE5       30.11R
FAIRFIELD *    MOCLDY    68  66  94 N5        30.12S
FORT MADISON * CLEAR     72  70  94 CALM      30.12R
KEOKUK *       CLEAR     73  70  88 NE5       30.11R
OSKALOOSA *      N/A     68  64  88 N3        30.13R
CENTERVILLE *  CLEAR     68  68 100 N3        30.14S
OTTUMWA        PTCLDY    69  65  86 N6        30.12S
WASHINGTON *   CLEAR     70  68  94 N6        30.11F
$$

ABBREVIATIONS USED IN REMARKS
   TC - TEMPERATURES IN CELSIUS
  WCI - WIND CHILL INDEX
   HX - HEAT INDEX
  VSB - VISIBILITY
$$




USA.gov is the U.S. government's official web portal to all federal, state and local government web resources and services.